Time,TemperatureF,DewpointF,PressureIn,WindDirection,WindDirectionDegrees,WindSpeedMPH,WindSpeedGustMPH,Humidity,HourlyPrecipIn,Conditions,Clouds,dailyrainin,SoftwareType,DateUTC
2013-09-13 00:01:00,50.0,27.2,30.16,WSW,248,1.8,1.8,41,0.00,,,0.00,WUHU216HW,2013-09-13 07:01:00,
2013-09-13 00:06:00,50.0,27.2,30.16,West,270,1.1,1.8,41,0.00,,,0.00,WUHU216HW,2013-09-13 07:06:00,
2013-09-13 00:11:00,50.0,26.6,30.16,WNW,293,1.1,1.8,40,0.00,,,0.00,WUHU216HW,2013-09-13 07:11:00,
2013-09-13 00:16:00,50.0,26.6,30.16,WNW,293,0.7,1.8,40,0.00,,,0.00,WUHU216HW,2013-09-13 07:16:00,
2013-09-13 00:21:00,50.0,27.2,30.16,West,270,1.3,1.8,41,0.00,,,0.00,WUHU216HW,2013-09-13 07:21:00,
2013-09-13 00:26:00,50.0,27.2,30.16,West,270,1.1,1.6,41,0.00,,,0.00,WUHU216HW,2013-09-13 07:26:00,
2013-09-13 00:31:00,50.0,27.2,30.16,West,270,0.9,1.6,41,0.00,,,0.00,WUHU216HW,2013-09-13 07:31:00,
2013-09-13 00:36:00,50.0,27.2,30.16,West,270,0.7,1.6,41,0.00,,,0.00,WUHU216HW,2013-09-13 07:36:00,
2013-09-13 00:41:00,50.0,26.6,30.16,WNW,293,0.0,1.6,40,0.00,,,0.00,WUHU216HW,2013-09-13 07:41:00,
2013-09-13 00:46:00,49.9,26.5,30.15,WSW,248,1.3,1.3,40,0.00,,,0.00,WUHU216HW,2013-09-13 07:46:00,
2013-09-13 00:51:00,49.9,27.0,30.15,WSW,248,1.8,2.0,41,0.00,,,0.00,WUHU216HW,2013-09-13 07:51:00,
2013-09-13 00:56:00,49.7,27.5,30.15,WSW,248,1.8,2.2,42,0.00,,,0.00,WUHU216HW,2013-09-13 07:56:00,
2013-09-13 01:01:00,49.5,27.3,30.15,WSW,248,2.2,2.9,42,0.00,,,0.00,WUHU216HW,2013-09-13 08:01:00,
2013-09-13 01:06:00,49.3,27.1,30.15,WSW,248,1.1,2.9,42,0.00,,,0.00,WUHU216HW,2013-09-13 08:06:00,
2013-09-13 01:11:00,49.3,27.6,30.15,WSW,248,1.6,2.7,43,0.00,,,0.00,WUHU216HW,2013-09-13 08:11:00,
2013-09-13 01:16:00,49.3,27.6,30.15,WSW,248,1.3,1.8,43,0.00,,,0.00,WUHU216HW,2013-09-13 08:16:00,
2013-09-13 01:21:00,49.3,27.6,30.15,West,270,1.1,1.8,43,0.00,,,0.00,WUHU216HW,2013-09-13 08:21:00,
2013-09-13 01:26:00,49.3,27.6,30.15,West,270,1.1,1.8,43,0.00,,,0.00,WUHU216HW,2013-09-13 08:26:00,
2013-09-13 01:31:00,49.3,28.2,30.15,West,270,1.8,1.8,44,0.00,,,0.00,WUHU216HW,2013-09-13 08:31:00,
2013-09-13 01:36:00,49.1,28.0,30.14,West,270,1.3,1.8,44,0.00,,,0.00,WUHU216HW,2013-09-13 08:36:00,
2013-09-13 01:41:00,49.0,28.5,30.14,West,270,1.1,1.8,45,0.00,,,0.00,WUHU216HW,2013-09-13 08:41:00,
2013-09-13 01:46:00,49.0,28.5,30.14,WSW,248,1.3,1.3,45,0.00,,,0.00,WUHU216HW,2013-09-13 08:46:00,
2013-09-13 01:51:00,48.8,28.3,30.14,WSW,248,1.1,1.6,45,0.00,,,0.00,WUHU216HW,2013-09-13 08:51:00,
2013-09-13 01:56:00,48.8,28.8,30.14,WSW,248,2.0,2.0,46,0.00,,,0.00,WUHU216HW,2013-09-13 08:56:00,
2013-09-13 02:01:00,48.8,28.8,30.14,WSW,248,2.0,2.5,46,0.00,,,0.00,WUHU216HW,2013-09-13 09:01:00,
2013-09-13 02:06:00,48.6,29.2,30.14,WSW,248,2.7,2.7,47,0.00,,,0.00,WUHU216HW,2013-09-13 09:06:00,
2013-09-13 02:11:00,48.6,29.2,30.14,WSW,248,2.7,2.7,47,0.00,,,0.00,WUHU216HW,2013-09-13 09:11:00,
2013-09-13 02:16:00,48.6,29.2,30.14,WSW,248,2.0,2.9,47,0.00,,,0.00,WUHU216HW,2013-09-13 09:16:00,
2013-09-13 02:21:00,48.6,29.7,30.14,WSW,248,2.5,2.9,48,0.00,,,0.00,WUHU216HW,2013-09-13 09:21:00,
2013-09-13 02:26:00,48.6,29.7,30.14,WSW,248,2.0,2.5,48,0.00,,,0.00,WUHU216HW,2013-09-13 09:26:00,
2013-09-13 02:31:00,48.4,29.5,30.14,WSW,248,1.1,2.5,48,0.00,,,0.00,WUHU216HW,2013-09-13 09:31:00,
2013-09-13 02:36:00,48.4,29.5,30.14,WSW,248,0.7,2.0,48,0.00,,,0.00,WUHU216HW,2013-09-13 09:36:00,
2013-09-13 02:41:00,48.4,29.5,30.14,WSW,248,1.8,1.8,48,0.00,,,0.00,WUHU216HW,2013-09-13 09:41:00,
2013-09-13 02:46:00,48.2,29.9,30.14,WSW,248,1.3,2.2,49,0.00,,,0.00,WUHU216HW,2013-09-13 09:46:00,
2013-09-13 02:51:00,48.2,29.9,30.13,WSW,248,1.8,2.2,49,0.00,,,0.00,WUHU216HW,2013-09-13 09:51:00,
2013-09-13 02:56:00,48.2,29.9,30.13,WSW,248,2.5,2.5,49,0.00,,,0.00,WUHU216HW,2013-09-13 09:56:00,
2013-09-13 03:01:00,48.2,29.9,30.13,WSW,248,1.6,2.5,49,0.00,,,0.00,WUHU216HW,2013-09-13 10:01:00,
2013-09-13 03:06:00,48.2,29.9,30.13,WSW,248,1.8,2.5,49,0.00,,,0.00,WUHU216HW,2013-09-13 10:06:00,
2013-09-13 03:11:00,48.1,29.7,30.13,WSW,248,2.2,2.7,49,0.00,,,0.00,WUHU216HW,2013-09-13 10:11:00,
2013-09-13 03:16:00,48.1,29.7,30.13,WSW,248,1.8,2.7,49,0.00,,,0.00,WUHU216HW,2013-09-13 10:16:00,
2013-09-13 03:21:00,47.9,29.5,30.13,WSW,248,1.1,2.5,49,0.00,,,0.00,WUHU216HW,2013-09-13 10:21:00,
2013-09-13 03:26:00,47.9,29.5,30.13,WSW,248,1.3,1.8,49,0.00,,,0.00,WUHU216HW,2013-09-13 10:26:00,
2013-09-13 03:31:00,47.7,29.4,30.13,WSW,248,1.3,1.8,49,0.00,,,0.00,WUHU216HW,2013-09-13 10:31:00,
2013-09-13 03:36:00,47.5,29.3,30.13,West,270,1.8,2.0,49,0.00,,,0.00,WUHU216HW,2013-09-13 10:36:00,
2013-09-13 03:42:00,47.5,29.3,30.13,West,270,1.3,2.0,49,0.00,,,0.00,WUHU216HW,2013-09-13 10:42:00,
2013-09-13 03:47:00,47.5,29.8,30.13,WSW,248,2.0,2.0,50,0.00,,,0.00,WUHU216HW,2013-09-13 10:47:00,
2013-09-13 03:52:00,47.5,29.8,30.13,WSW,248,1.6,2.0,50,0.00,,,0.00,WUHU216HW,2013-09-13 10:52:00,
2013-09-13 03:57:00,47.5,29.8,30.13,WSW,248,1.3,2.0,50,0.00,,,0.00,WUHU216HW,2013-09-13 10:57:00,
2013-09-13 04:02:00,47.5,29.8,30.13,WSW,248,1.8,1.8,50,0.00,,,0.00,WUHU216HW,2013-09-13 11:02:00,
2013-09-13 04:07:00,47.5,29.8,30.13,SW,225,1.3,1.8,50,0.00,,,0.00,WUHU216HW,2013-09-13 11:07:00,
2013-09-13 04:11:00,47.5,29.8,30.13,WSW,248,1.8,2.2,50,0.00,,,0.00,WUHU216HW,2013-09-13 11:11:00,
2013-09-13 04:16:00,47.5,29.8,30.13,WSW,248,1.8,2.2,50,0.00,,,0.00,WUHU216HW,2013-09-13 11:16:00,
2013-09-13 04:21:00,47.5,29.8,30.13,WSW,248,1.8,2.0,50,0.00,,,0.00,WUHU216HW,2013-09-13 11:21:00,
2013-09-13 04:26:00,47.5,29.8,30.12,WSW,248,1.3,2.2,50,0.00,,,0.00,WUHU216HW,2013-09-13 11:26:00,
2013-09-13 04:31:00,47.5,29.8,30.12,WSW,248,1.6,2.2,50,0.00,,,0.00,WUHU216HW,2013-09-13 11:31:00,
2013-09-13 04:36:00,47.5,29.8,30.12,WSW,248,1.3,2.0,50,0.00,,,0.00,WUHU216HW,2013-09-13 11:36:00,
2013-09-13 04:41:00,47.5,29.8,30.12,West,270,1.3,1.8,50,0.00,,,0.00,WUHU216HW,2013-09-13 11:41:00,
2013-09-13 04:46:00,47.5,29.8,30.12,WSW,248,1.6,1.8,50,0.00,,,0.00,WUHU216HW,2013-09-13 11:46:00,
2013-09-13 04:51:00,47.3,29.6,30.12,WSW,248,1.8,2.0,50,0.00,,,0.00,WUHU216HW,2013-09-13 11:51:00,
2013-09-13 04:56:00,47.2,29.4,30.12,WSW,248,1.8,2.0,50,0.00,,,0.00,WUHU216HW,2013-09-13 11:56:00,
2013-09-13 05:01:00,47.2,29.4,30.12,WSW,248,1.8,2.0,50,0.00,,,0.00,WUHU216HW,2013-09-13 12:01:00,
2013-09-13 05:06:00,47.2,29.4,30.12,WSW,248,1.8,2.7,50,0.00,,,0.00,WUHU216HW,2013-09-13 12:06:00,
2013-09-13 05:11:00,47.2,29.4,30.12,West,270,1.8,2.7,50,0.00,,,0.00,WUHU216HW,2013-09-13 12:11:00,
2013-09-13 05:16:00,47.2,29.4,30.12,West,270,1.8,2.0,50,0.00,,,0.00,WUHU216HW,2013-09-13 12:16:00,
2013-09-13 05:21:00,47.2,29.4,30.12,WSW,248,1.8,2.2,50,0.00,,,0.00,WUHU216HW,2013-09-13 12:21:00,
2013-09-13 05:26:00,47.2,29.4,30.12,WSW,248,1.8,2.2,50,0.00,,,0.00,WUHU216HW,2013-09-13 12:26:00,
2013-09-13 05:31:00,47.0,29.3,30.12,WSW,248,1.8,2.5,50,0.00,,,0.00,WUHU216HW,2013-09-13 12:31:00,
2013-09-13 05:36:00,47.0,29.7,30.12,SW,225,1.3,2.5,51,0.00,,,0.00,WUHU216HW,2013-09-13 12:36:00,
2013-09-13 05:41:00,47.0,29.7,30.12,SW,225,1.1,1.8,51,0.00,,,0.00,WUHU216HW,2013-09-13 12:41:00,
2013-09-13 05:46:00,47.0,29.7,30.12,WSW,248,2.5,2.5,51,0.00,,,0.00,WUHU216HW,2013-09-13 12:46:00,
2013-09-13 05:51:00,47.0,29.7,30.12,WSW,248,1.6,2.7,51,0.00,,,0.00,WUHU216HW,2013-09-13 12:51:00,
2013-09-13 05:56:00,47.0,29.7,30.12,WSW,248,2.5,2.7,51,0.00,,,0.00,WUHU216HW,2013-09-13 12:56:00,
2013-09-13 06:01:00,47.0,29.7,30.12,WSW,248,2.5,2.5,51,0.00,,,0.00,WUHU216HW,2013-09-13 13:01:00,
2013-09-13 06:06:00,47.0,29.7,30.12,WSW,248,1.3,2.5,51,0.00,,,0.00,WUHU216HW,2013-09-13 13:06:00,
2013-09-13 06:11:00,47.0,29.7,30.12,WSW,248,1.1,2.5,51,0.00,,,0.00,WUHU216HW,2013-09-13 13:11:00,
2013-09-13 06:16:00,47.0,29.7,30.12,WSW,248,1.6,1.8,51,0.00,,,0.00,WUHU216HW,2013-09-13 13:16:00,
2013-09-13 06:21:00,47.0,29.7,30.12,WSW,248,1.6,1.8,51,0.00,,,0.00,WUHU216HW,2013-09-13 13:21:00,
2013-09-13 06:26:00,47.0,29.7,30.12,WSW,248,0.7,1.8,51,0.00,,,0.00,WUHU216HW,2013-09-13 13:26:00,
2013-09-13 06:31:00,47.0,29.7,30.12,WSW,248,1.1,1.8,51,0.00,,,0.00,WUHU216HW,2013-09-13 13:31:00,
2013-09-13 06:36:00,47.0,29.7,30.12,West,270,1.3,1.8,51,0.00,,,0.00,WUHU216HW,2013-09-13 13:36:00,
2013-09-13 06:41:00,47.0,29.7,30.12,West,270,1.1,1.8,51,0.00,,,0.00,WUHU216HW,2013-09-13 13:41:00,
2013-09-13 06:46:00,47.2,29.9,30.12,West,270,0.4,1.3,51,0.00,,,0.00,WUHU216HW,2013-09-13 13:46:00,
2013-09-13 06:51:00,47.2,29.9,30.13,West,270,0.9,1.1,51,0.00,,,0.00,WUHU216HW,2013-09-13 13:51:00,
2013-09-13 06:56:00,47.3,30.1,30.12,West,270,1.1,1.1,51,0.00,,,0.00,WUHU216HW,2013-09-13 13:56:00,
2013-09-13 07:01:00,47.5,30.3,30.12,West,270,0.4,1.1,51,0.00,,,0.00,WUHU216HW,2013-09-13 14:01:00,
2013-09-13 07:06:00,47.9,30.6,30.13,West,270,0.0,1.1,51,0.00,,,0.00,WUHU216HW,2013-09-13 14:06:00,
2013-09-13 07:11:00,48.2,30.9,30.13,West,270,0.0,0.4,51,0.00,,,0.00,WUHU216HW,2013-09-13 14:11:00,
2013-09-13 07:16:00,48.8,31.4,30.13,West,270,0.0,0.0,51,0.00,,,0.00,WUHU216HW,2013-09-13 14:16:00,
2013-09-13 07:21:00,49.1,31.3,30.13,West,270,0.0,0.0,50,0.00,,,0.00,WUHU216HW,2013-09-13 14:21:00,
2013-09-13 07:26:00,49.7,31.9,30.13,West,270,0.0,0.0,50,0.00,,,0.00,WUHU216HW,2013-09-13 14:26:00,
2013-09-13 07:31:00,50.0,32.2,30.13,West,270,0.0,0.0,50,0.00,,,0.00,WUHU216HW,2013-09-13 14:31:00,
2013-09-13 07:36:00,50.6,32.1,30.13,West,270,0.4,0.4,49,0.00,,,0.00,WUHU216HW,2013-09-13 14:36:00,
2013-09-13 07:41:00,51.1,32.7,30.13,West,270,0.0,0.4,49,0.00,,,0.00,WUHU216HW,2013-09-13 14:41:00,
2013-09-13 07:46:00,51.8,32.8,30.13,West,270,0.0,0.4,48,0.00,,,0.00,WUHU216HW,2013-09-13 14:46:00,
2013-09-13 07:51:00,52.6,32.9,30.13,West,270,0.0,0.0,47,0.00,,,0.00,WUHU216HW,2013-09-13 14:51:00,
2013-09-13 07:56:00,53.3,33.5,30.13,West,270,0.0,0.0,47,0.00,,,0.00,WUHU216HW,2013-09-13 14:56:00,
2013-09-13 08:01:00,54.0,33.6,30.13,WNW,293,0.4,0.4,46,0.00,,,0.00,WUHU216HW,2013-09-13 15:01:00,
2013-09-13 08:06:00,54.7,34.7,30.13,North,0,0.0,0.9,47,0.00,,,0.00,WUHU216HW,2013-09-13 15:06:00,
2013-09-13 08:11:00,56.0,35.4,30.13,North,0,2.5,2.5,46,0.00,,,0.00,WUHU216HW,2013-09-13 15:11:00,
2013-09-13 08:16:00,57.2,36.0,30.13,NNW,338,0.4,2.5,45,0.00,,,0.00,WUHU216HW,2013-09-13 15:16:00,
2013-09-13 08:21:00,58.1,36.3,30.13,North,0,1.1,2.5,44,0.00,,,0.00,WUHU216HW,2013-09-13 15:21:00,
2013-09-13 08:26:00,59.0,36.5,30.13,North,0,0.7,2.2,43,0.00,,,0.00,WUHU216HW,2013-09-13 15:26:00,
2013-09-13 08:31:00,59.8,36.0,30.13,North,0,2.0,2.2,41,0.00,,,0.00,WUHU216HW,2013-09-13 15:31:00,
2013-09-13 08:36:00,60.5,35.3,30.13,NNE,23,1.1,3.4,39,0.00,,,0.00,WUHU216HW,2013-09-13 15:36:00,
2013-09-13 08:41:00,61.2,36.0,30.13,North,0,1.8,3.4,39,0.00,,,0.00,WUHU216HW,2013-09-13 15:41:00,
2013-09-13 08:46:00,61.7,36.5,30.13,NNE,23,1.1,2.5,39,0.00,,,0.00,WUHU216HW,2013-09-13 15:46:00,
2013-09-13 08:51:00,62.3,35.5,30.13,North,0,1.1,2.7,37,0.00,,,0.00,WUHU216HW,2013-09-13 15:51:00,
2013-09-13 08:56:00,63.0,36.2,30.13,North,0,0.0,4.0,37,0.00,,,0.00,WUHU216HW,2013-09-13 15:56:00,
2013-09-13 09:01:00,63.4,35.7,30.13,NNW,338,1.1,4.0,36,0.00,,,0.00,WUHU216HW,2013-09-13 16:01:00,
2013-09-13 09:06:00,63.7,35.4,30.13,ENE,68,1.8,4.0,35,0.00,,,0.00,WUHU216HW,2013-09-13 16:06:00,
2013-09-13 09:11:00,64.4,35.3,30.13,North,0,3.4,4.0,34,0.00,,,0.00,WUHU216HW,2013-09-13 16:11:00,
2013-09-13 09:16:00,65.0,35.7,30.13,North,0,0.4,4.0,34,0.00,,,0.00,WUHU216HW,2013-09-13 16:16:00,
2013-09-13 09:21:00,65.5,36.3,30.13,North,0,2.5,4.0,34,0.00,,,0.00,WUHU216HW,2013-09-13 16:21:00,
2013-09-13 09:26:00,65.9,36.5,30.13,North,0,2.0,3.1,34,0.00,,,0.00,WUHU216HW,2013-09-13 16:26:00,
2013-09-13 09:31:00,66.2,36.9,30.13,East,90,0.4,3.1,34,0.00,,,0.00,WUHU216HW,2013-09-13 16:31:00,
2013-09-13 09:36:00,66.6,36.5,30.13,North,0,1.8,2.5,33,0.00,,,0.00,WUHU216HW,2013-09-13 16:36:00,
2013-09-13 09:41:00,67.3,36.4,30.13,North,0,1.8,4.7,32,0.00,,,0.00,WUHU216HW,2013-09-13 16:41:00,
2013-09-13 09:46:00,67.7,37.4,30.13,West,270,1.8,4.7,33,0.00,,,0.00,WUHU216HW,2013-09-13 16:46:00,
2013-09-13 09:51:00,67.9,36.1,30.13,North,0,4.3,4.3,31,0.00,,,0.00,WUHU216HW,2013-09-13 16:51:00,
2013-09-13 09:56:00,68.0,36.2,30.12,North,0,2.5,4.3,31,0.00,,,0.00,WUHU216HW,2013-09-13 16:56:00,
2013-09-13 10:01:00,68.6,36.7,30.13,North,0,1.1,4.3,31,0.00,,,0.00,WUHU216HW,2013-09-13 17:01:00,
2013-09-13 10:06:00,68.8,36.8,30.13,NE,45,2.2,4.3,31,0.00,,,0.00,WUHU216HW,2013-09-13 17:06:00,
2013-09-13 10:11:00,68.9,36.3,30.12,NNE,23,1.3,4.9,30,0.00,,,0.00,WUHU216HW,2013-09-13 17:11:00,
2013-09-13 10:16:00,69.3,36.6,30.12,North,0,2.0,4.9,30,0.00,,,0.00,WUHU216HW,2013-09-13 17:16:00,
2013-09-13 10:21:00,69.5,37.5,30.12,NW,315,1.3,4.0,31,0.00,,,0.00,WUHU216HW,2013-09-13 17:21:00,
2013-09-13 10:26:00,69.7,36.9,30.12,NW,315,1.1,3.6,30,0.00,,,0.00,WUHU216HW,2013-09-13 17:26:00,
2013-09-13 10:31:00,69.8,37.1,30.12,North,0,1.8,3.6,30,0.00,,,0.00,WUHU216HW,2013-09-13 17:31:00,
2013-09-13 10:36:00,70.0,37.3,30.12,North,0,1.3,5.4,30,0.00,,,0.00,WUHU216HW,2013-09-13 17:36:00,
2013-09-13 10:41:00,70.2,36.4,30.12,NNE,23,1.1,5.4,29,0.00,,,0.00,WUHU216HW,2013-09-13 17:41:00,
2013-09-13 10:46:00,70.2,36.4,30.12,WSW,248,2.7,5.4,29,0.00,,,0.00,WUHU216HW,2013-09-13 17:46:00,
2013-09-13 10:51:00,70.4,36.5,30.12,North,0,1.8,3.4,29,0.00,,,0.00,WUHU216HW,2013-09-13 17:51:00,
2013-09-13 10:56:00,70.6,36.7,30.12,North,0,1.8,4.0,29,0.00,,,0.00,WUHU216HW,2013-09-13 17:56:00,
2013-09-13 11:01:00,70.6,36.7,30.12,East,90,4.7,4.7,29,0.00,,,0.00,WUHU216HW,2013-09-13 18:01:00,
2013-09-13 11:06:00,70.6,36.7,30.12,West,270,1.8,4.7,29,0.00,,,0.00,WUHU216HW,2013-09-13 18:06:00,
2013-09-13 11:11:00,70.6,35.7,30.12,North,0,2.5,4.7,28,0.00,,,0.00,WUHU216HW,2013-09-13 18:11:00,
2013-09-13 11:16:00,70.9,36.0,30.12,North,0,2.2,4.3,28,0.00,,,0.00,WUHU216HW,2013-09-13 18:16:00,
2013-09-13 11:21:00,71.1,36.2,30.11,ENE,68,1.3,3.6,28,0.00,,,0.00,WUHU216HW,2013-09-13 18:21:00,
2013-09-13 11:26:00,71.3,37.4,30.11,North,0,1.6,5.8,29,0.00,,,0.00,WUHU216HW,2013-09-13 18:26:00,
2013-09-13 11:31:00,71.3,36.4,30.11,ENE,68,2.2,5.8,28,0.00,,,0.00,WUHU216HW,2013-09-13 18:31:00,
2013-09-13 11:36:00,71.3,36.4,30.11,North,0,3.6,4.0,28,0.00,,,0.00,WUHU216HW,2013-09-13 18:36:00,
2013-09-13 11:41:00,71.5,35.5,30.11,North,0,2.9,6.0,27,0.00,,,0.00,WUHU216HW,2013-09-13 18:41:00,
2013-09-13 11:46:00,71.5,36.5,30.11,East,90,1.8,6.7,28,0.00,,,0.00,WUHU216HW,2013-09-13 18:46:00,
2013-09-13 11:51:00,71.8,36.8,30.11,East,90,1.6,7.6,28,0.00,,,0.00,WUHU216HW,2013-09-13 18:51:00,
2013-09-13 11:56:00,71.8,36.8,30.11,ENE,68,4.5,7.6,28,0.00,,,0.00,WUHU216HW,2013-09-13 18:56:00,
2013-09-13 12:01:00,72.0,35.9,30.11,ESE,113,2.7,7.6,27,0.00,,,0.00,WUHU216HW,2013-09-13 19:01:00,
2013-09-13 12:06:00,72.4,37.3,30.11,East,90,3.4,4.9,28,0.00,,,0.00,WUHU216HW,2013-09-13 19:06:00,
2013-09-13 12:11:00,72.7,36.6,30.11,East,90,3.4,6.3,27,0.00,,,0.00,WUHU216HW,2013-09-13 19:11:00,
2013-09-13 12:16:00,72.9,35.6,30.10,ESE,113,3.6,6.3,26,0.00,,,0.00,WUHU216HW,2013-09-13 19:16:00,
2013-09-13 12:21:00,73.1,35.8,30.10,NNE,23,1.1,10.3,26,0.00,,,0.00,WUHU216HW,2013-09-13 19:21:00,
2013-09-13 12:26:00,73.1,35.8,30.11,ENE,68,1.6,10.3,26,0.00,,,0.00,WUHU216HW,2013-09-13 19:26:00,
2013-09-13 12:31:00,73.1,35.8,30.11,SE,135,2.2,8.7,26,0.00,,,0.00,WUHU216HW,2013-09-13 19:31:00,
2013-09-13 12:36:00,73.3,36.0,30.10,East,90,8.1,8.1,26,0.00,,,0.00,WUHU216HW,2013-09-13 19:36:00,
2013-09-13 12:41:00,73.3,36.0,30.11,ENE,68,4.5,8.1,26,0.00,,,0.00,WUHU216HW,2013-09-13 19:41:00,
2013-09-13 12:46:00,73.4,36.1,30.10,NE,45,2.5,8.1,26,0.00,,,0.00,WUHU216HW,2013-09-13 19:46:00,
2013-09-13 12:51:00,73.4,36.1,30.10,ESE,113,4.3,7.6,26,0.00,,,0.00,WUHU216HW,2013-09-13 19:51:00,
2013-09-13 12:56:00,73.6,36.3,30.10,East,90,3.4,6.7,26,0.00,,,0.00,WUHU216HW,2013-09-13 19:56:00,
2013-09-13 13:01:00,73.8,36.5,30.10,NE,45,5.8,8.5,26,0.00,,,0.00,WUHU216HW,2013-09-13 20:01:00,
2013-09-13 13:06:00,74.0,36.5,30.10,ENE,68,1.1,8.5,26,0.00,,,0.00,WUHU216HW,2013-09-13 20:06:00,
2013-09-13 13:11:00,74.2,35.7,30.10,SE,135,4.7,6.3,25,0.00,,,0.00,WUHU216HW,2013-09-13 20:11:00,
2013-09-13 13:16:00,74.2,36.7,30.10,ESE,113,2.2,6.3,26,0.00,,,0.00,WUHU216HW,2013-09-13 20:16:00,
2013-09-13 13:21:00,74.3,35.8,30.10,ESE,113,2.5,4.7,25,0.00,,,0.00,WUHU216HW,2013-09-13 20:21:00,
2013-09-13 13:26:00,74.7,36.2,30.10,SE,135,5.1,5.6,25,0.00,,,0.00,WUHU216HW,2013-09-13 20:26:00,
2013-09-13 13:31:00,74.5,36.0,30.09,East,90,3.1,8.5,25,0.00,,,0.00,WUHU216HW,2013-09-13 20:31:00,
2013-09-13 13:36:00,74.9,36.4,30.09,East,90,4.0,8.5,25,0.00,,,0.00,WUHU216HW,2013-09-13 20:36:00,
2013-09-13 13:41:00,74.9,36.4,30.09,ESE,113,2.7,5.1,25,0.00,,,0.00,WUHU216HW,2013-09-13 20:41:00,
2013-09-13 13:46:00,75.1,36.5,30.09,East,90,3.1,5.1,25,0.00,,,0.00,WUHU216HW,2013-09-13 20:46:00,
2013-09-13 13:51:00,75.1,36.5,30.09,East,90,4.0,6.9,25,0.00,,,0.00,WUHU216HW,2013-09-13 20:51:00,
2013-09-13 13:56:00,75.2,36.6,30.09,East,90,4.9,6.9,25,0.00,,,0.00,WUHU216HW,2013-09-13 20:56:00,
2013-09-13 14:01:00,75.2,36.6,30.09,ENE,68,6.9,9.2,25,0.00,,,0.00,WUHU216HW,2013-09-13 21:01:00,
2013-09-13 14:06:00,75.2,36.6,30.09,ESE,113,2.9,9.2,25,0.00,,,0.00,WUHU216HW,2013-09-13 21:06:00,
2013-09-13 14:11:00,75.2,36.6,30.08,ENE,68,4.0,8.1,25,0.00,,,0.00,WUHU216HW,2013-09-13 21:11:00,
2013-09-13 14:16:00,75.2,36.6,30.09,East,90,2.5,6.3,25,0.00,,,0.00,WUHU216HW,2013-09-13 21:16:00,
2013-09-13 14:21:00,74.9,36.4,30.08,East,90,1.6,5.1,25,0.00,,,0.00,WUHU216HW,2013-09-13 21:21:00,
2013-09-13 14:26:00,74.9,36.4,30.08,East,90,4.7,6.5,25,0.00,,,0.00,WUHU216HW,2013-09-13 21:26:00,
2013-09-13 14:31:00,74.9,36.4,30.08,NNW,338,2.5,6.5,25,0.00,,,0.00,WUHU216HW,2013-09-13 21:31:00,
2013-09-13 14:36:00,75.1,36.5,30.08,North,0,3.1,5.8,25,0.00,,,0.00,WUHU216HW,2013-09-13 21:36:00,
2013-09-13 14:41:00,74.5,36.0,30.08,East,90,3.4,7.4,25,0.00,,,0.00,WUHU216HW,2013-09-13 21:41:00,
2013-09-13 14:46:00,74.5,36.0,30.08,ESE,113,2.5,7.4,25,0.00,,,0.00,WUHU216HW,2013-09-13 21:46:00,
2013-09-13 14:51:00,74.3,35.8,30.08,NE,45,2.7,6.9,25,0.00,,,0.00,WUHU216HW,2013-09-13 21:51:00,
2013-09-13 14:56:00,74.3,35.8,30.08,East,90,5.8,6.9,25,0.00,,,0.00,WUHU216HW,2013-09-13 21:56:00,
2013-09-13 15:01:00,74.5,36.0,30.08,ESE,113,4.5,6.9,25,0.00,,,0.00,WUHU216HW,2013-09-13 22:01:00,
2013-09-13 15:06:00,74.7,36.2,30.08,ENE,68,2.0,6.9,25,0.00,,,0.00,WUHU216HW,2013-09-13 22:06:00,
2013-09-13 15:11:00,74.9,36.4,30.08,South,180,3.4,4.9,25,0.00,,,0.00,WUHU216HW,2013-09-13 22:11:00,
2013-09-13 15:16:00,74.9,36.4,30.08,SE,135,2.5,4.5,25,0.00,,,0.00,WUHU216HW,2013-09-13 22:16:00,
2013-09-13 15:21:00,74.9,36.4,30.07,SW,225,0.0,4.3,25,0.00,,,0.00,WUHU216HW,2013-09-13 22:21:00,
2013-09-13 15:26:00,74.9,36.4,30.08,SE,135,2.9,8.5,25,0.00,,,0.00,WUHU216HW,2013-09-13 22:26:00,
2013-09-13 15:31:00,74.5,36.0,30.07,NE,45,1.1,8.5,25,0.00,,,0.00,WUHU216HW,2013-09-13 22:31:00,
2013-09-13 15:36:00,74.5,36.0,30.07,ESE,113,2.5,7.8,25,0.00,,,0.00,WUHU216HW,2013-09-13 22:36:00,
2013-09-13 15:41:00,74.5,36.0,30.07,East,90,3.4,5.4,25,0.00,,,0.00,WUHU216HW,2013-09-13 22:41:00,
2013-09-13 15:46:00,74.5,36.0,30.08,ESE,113,2.2,5.4,25,0.00,,,0.00,WUHU216HW,2013-09-13 22:46:00,
2013-09-13 15:51:00,74.5,36.0,30.08,SE,135,1.3,5.4,25,0.00,,,0.00,WUHU216HW,2013-09-13 22:51:00,
2013-09-13 15:56:00,74.5,36.0,30.08,SSW,203,4.5,5.4,25,0.00,,,0.00,WUHU216HW,2013-09-13 22:56:00,
2013-09-13 16:01:00,74.2,35.7,30.08,North,0,0.7,7.8,25,0.00,,,0.00,WUHU216HW,2013-09-13 23:01:00,
2013-09-13 16:06:00,74.0,35.6,30.08,ESE,113,4.9,7.8,25,0.00,,,0.00,WUHU216HW,2013-09-13 23:06:00,
2013-09-13 16:11:00,73.8,35.4,30.08,ENE,68,2.2,6.3,25,0.00,,,0.00,WUHU216HW,2013-09-13 23:11:00,
2013-09-13 16:16:00,73.6,35.3,30.08,ESE,113,2.5,6.0,25,0.00,,,0.00,WUHU216HW,2013-09-13 23:16:00,
2013-09-13 16:21:00,73.3,34.9,30.07,ESE,113,1.3,4.0,25,0.00,,,0.00,WUHU216HW,2013-09-13 23:21:00,
2013-09-13 16:26:00,73.1,35.8,30.08,East,90,3.4,6.0,26,0.00,,,0.00,WUHU216HW,2013-09-13 23:26:00,
2013-09-13 16:31:00,73.1,34.8,30.07,SSE,158,2.7,6.0,25,0.00,,,0.00,WUHU216HW,2013-09-13 23:31:00,
2013-09-13 16:36:00,73.1,34.8,30.07,ESE,113,2.5,5.8,25,0.00,,,0.00,WUHU216HW,2013-09-13 23:36:00,
2013-09-13 16:41:00,73.1,35.8,30.07,ESE,113,0.4,5.1,26,0.00,,,0.00,WUHU216HW,2013-09-13 23:41:00,
2013-09-13 16:46:00,72.9,35.6,30.08,ESE,113,1.8,4.9,26,0.00,,,0.00,WUHU216HW,2013-09-13 23:46:00,
2013-09-13 16:51:00,72.7,35.5,30.07,East,90,4.7,6.0,26,0.00,,,0.00,WUHU216HW,2013-09-13 23:51:00,
2013-09-13 16:56:00,72.7,35.5,30.07,ENE,68,3.1,6.0,26,0.00,,,0.00,WUHU216HW,2013-09-13 23:56:00,
2013-09-13 17:01:00,72.4,34.2,30.07,East,90,8.5,8.5,25,0.00,,,0.00,WUHU216HW,2013-09-14 00:01:00,
2013-09-13 17:06:00,72.4,35.2,30.07,ENE,68,1.1,8.5,26,0.00,,,0.00,WUHU216HW,2013-09-14 00:06:00,
2013-09-13 17:11:00,72.4,35.2,30.07,SE,135,4.0,5.6,26,0.00,,,0.00,WUHU216HW,2013-09-14 00:11:00,
2013-09-13 17:16:00,72.0,34.9,30.07,ENE,68,3.4,6.7,26,0.00,,,0.00,WUHU216HW,2013-09-14 00:16:00,
2013-09-13 17:21:00,72.0,35.9,30.07,North,0,2.2,6.7,27,0.00,,,0.00,WUHU216HW,2013-09-14 00:21:00,
2013-09-13 17:26:00,71.6,36.6,30.07,ESE,113,1.8,6.0,28,0.00,,,0.00,WUHU216HW,2013-09-14 00:26:00,
2013-09-13 17:31:00,71.6,36.6,30.07,NE,45,3.4,5.6,28,0.00,,,0.00,WUHU216HW,2013-09-14 00:31:00,
2013-09-13 17:36:00,71.3,36.4,30.07,East,90,1.8,4.9,28,0.00,,,0.00,WUHU216HW,2013-09-14 00:36:00,
2013-09-13 17:41:00,71.1,36.2,30.07,ESE,113,2.5,5.4,28,0.00,,,0.00,WUHU216HW,2013-09-14 00:41:00,
2013-09-13 17:46:00,70.9,37.0,30.07,ESE,113,1.8,5.4,29,0.00,,,0.00,WUHU216HW,2013-09-14 00:46:00,
2013-09-13 17:51:00,70.9,37.0,30.07,East,90,2.5,4.7,29,0.00,,,0.00,WUHU216HW,2013-09-14 00:51:00,
2013-09-13 17:56:00,70.9,37.0,30.07,ENE,68,0.2,4.7,29,0.00,,,0.00,WUHU216HW,2013-09-14 00:56:00,
2013-09-13 18:01:00,70.6,37.7,30.07,ENE,68,0.4,4.0,30,0.00,,,0.00,WUHU216HW,2013-09-14 01:01:00,
2013-09-13 18:06:00,70.6,37.7,30.07,NNW,338,0.9,4.0,30,0.00,,,0.00,WUHU216HW,2013-09-14 01:06:00,
2013-09-13 18:11:00,70.2,37.5,30.07,NNE,23,0.4,3.4,30,0.00,,,0.00,WUHU216HW,2013-09-14 01:11:00,
2013-09-13 18:16:00,70.0,37.3,30.07,NNE,23,1.3,3.4,30,0.00,,,0.00,WUHU216HW,2013-09-14 01:16:00,
2013-09-13 18:21:00,69.7,36.9,30.07,North,0,0.4,3.4,30,0.00,,,0.00,WUHU216HW,2013-09-14 01:21:00,
2013-09-13 18:26:00,69.5,37.5,30.07,North,0,0.4,3.4,31,0.00,,,0.00,WUHU216HW,2013-09-14 01:26:00,
2013-09-13 18:31:00,69.3,37.4,30.07,North,0,0.4,1.8,31,0.00,,,0.00,WUHU216HW,2013-09-14 01:31:00,
2013-09-13 18:36:00,68.9,37.0,30.07,NE,45,1.6,2.0,31,0.00,,,0.00,WUHU216HW,2013-09-14 01:36:00,
2013-09-13 18:41:00,68.8,37.6,30.07,North,0,0.0,2.0,32,0.00,,,0.00,WUHU216HW,2013-09-14 01:41:00,
2013-09-13 18:46:00,68.6,37.5,30.08,North,0,0.4,1.6,32,0.00,,,0.00,WUHU216HW,2013-09-14 01:46:00,
2013-09-13 18:52:00,68.2,37.1,30.07,North,0,0.0,0.7,32,0.00,,,0.00,WUHU216HW,2013-09-14 01:52:00,
2013-09-13 18:57:00,68.2,37.1,30.07,North,0,0.0,0.4,32,0.00,,,0.00,WUHU216HW,2013-09-14 01:57:00,
2013-09-13 19:00:00,67.7,37.4,30.07,North,0,0.7,0.7,33,0.00,,,0.00,WUHU216HW,2013-09-14 02:00:00,
2013-09-13 19:02:00,67.7,37.4,30.07,North,0,0.7,0.7,33,0.00,,,0.00,WUHU216HW,2013-09-14 02:02:00,
2013-09-13 19:07:00,67.7,37.4,30.07,North,0,0.7,0.7,33,0.00,,,0.00,WUHU216HW,2013-09-14 02:07:00,
2013-09-13 19:30:00,64.6,36.2,30.08,WSW,248,2.0,2.0,35,0.00,,,0.00,WUHU216HW,2013-09-14 02:30:00,
2013-09-13 19:35:00,64.6,36.2,30.08,WSW,248,2.0,2.0,35,0.00,,,0.00,WUHU216HW,2013-09-14 02:35:00,
2013-09-13 20:00:00,61.6,35.6,30.08,WSW,248,1.8,1.8,38,0.00,,,0.00,WUHU216HW,2013-09-14 03:00:00,
2013-09-13 20:05:00,61.6,35.6,30.08,WSW,248,1.8,1.8,38,0.00,,,0.00,WUHU216HW,2013-09-14 03:05:00,
2013-09-13 20:30:00,59.4,35.6,30.09,WSW,248,2.5,2.5,41,0.00,,,0.00,WUHU216HW,2013-09-14 03:30:00,
2013-09-13 20:35:00,59.4,35.6,30.09,WSW,248,2.5,2.5,41,0.00,,,0.00,WUHU216HW,2013-09-14 03:35:00,
2013-09-13 21:00:00,58.0,36.1,30.09,WSW,248,2.2,2.2,44,0.00,,,0.00,WUHU216HW,2013-09-14 04:00:00,
2013-09-13 21:01:00,58.0,36.1,30.09,WSW,248,2.2,2.2,44,0.00,,,0.00,WUHU216HW,2013-09-14 04:01:00,
2013-09-13 21:02:00,58.0,36.1,30.09,WSW,248,2.2,2.2,44,0.00,,,0.00,WUHU216HW,2013-09-14 04:02:00,
2013-09-13 21:07:00,58.0,36.1,30.09,WSW,248,2.2,2.2,44,0.00,,,0.00,WUHU216HW,2013-09-14 04:07:00,
2013-09-13 21:12:00,57.2,35.5,30.10,WSW,248,2.5,2.5,44,0.00,,,0.00,WUHU216HW,2013-09-14 04:12:00,
2013-09-13 21:17:00,57.1,35.8,30.10,WSW,248,2.2,2.9,45,0.00,,,0.00,WUHU216HW,2013-09-14 04:17:00,
2013-09-13 21:21:00,56.9,35.6,30.10,WSW,248,2.7,2.9,45,0.00,,,0.00,WUHU216HW,2013-09-14 04:21:00,
2013-09-13 21:26:00,56.5,35.3,30.10,WSW,248,1.6,2.9,45,0.00,,,0.00,WUHU216HW,2013-09-14 04:26:00,
2013-09-13 21:31:00,56.5,35.9,30.10,WSW,248,0.0,2.7,46,0.00,,,0.00,WUHU216HW,2013-09-14 04:31:00,
2013-09-13 21:36:00,56.2,35.6,30.10,WSW,248,1.3,2.0,46,0.00,,,0.00,WUHU216HW,2013-09-14 04:36:00,
2013-09-13 21:41:00,56.2,35.6,30.10,WSW,248,1.1,1.8,46,0.00,,,0.00,WUHU216HW,2013-09-14 04:41:00,
2013-09-13 21:46:00,55.8,35.7,30.10,WSW,248,2.5,2.5,47,0.00,,,0.00,WUHU216HW,2013-09-14 04:46:00,
2013-09-13 21:51:00,55.8,35.7,30.10,WSW,248,2.9,3.1,47,0.00,,,0.00,WUHU216HW,2013-09-14 04:51:00,
2013-09-13 21:56:00,55.4,35.4,30.10,WSW,248,2.2,3.1,47,0.00,,,0.00,WUHU216HW,2013-09-14 04:56:00,
2013-09-13 22:01:00,55.3,35.3,30.09,WSW,248,1.6,3.1,47,0.00,,,0.00,WUHU216HW,2013-09-14 05:01:00,
2013-09-13 22:06:00,55.1,35.1,30.10,WSW,248,2.9,3.1,47,0.00,,,0.00,WUHU216HW,2013-09-14 05:06:00,
2013-09-13 22:11:00,54.9,34.9,30.10,WSW,248,1.8,3.1,47,0.00,,,0.00,WUHU216HW,2013-09-14 05:11:00,
2013-09-13 22:16:00,54.7,35.3,30.09,WSW,248,2.5,2.9,48,0.00,,,0.00,WUHU216HW,2013-09-14 05:16:00,
2013-09-13 22:21:00,54.5,35.2,30.10,WSW,248,2.5,3.1,48,0.00,,,0.00,WUHU216HW,2013-09-14 05:21:00,
2013-09-13 22:26:00,54.4,34.5,30.10,WSW,248,2.2,3.1,47,0.00,,,0.00,WUHU216HW,2013-09-14 05:26:00,
2013-09-13 22:31:00,54.2,34.8,30.10,WSW,248,2.5,2.5,48,0.00,,,0.00,WUHU216HW,2013-09-14 05:31:00,
2013-09-13 22:36:00,54.0,34.7,30.09,WSW,248,2.9,3.1,48,0.00,,,0.00,WUHU216HW,2013-09-14 05:36:00,
2013-09-13 22:41:00,53.8,35.1,30.09,SW,225,2.0,3.1,49,0.00,,,0.00,WUHU216HW,2013-09-14 05:41:00,
2013-09-13 22:46:00,53.6,34.9,30.10,WSW,248,1.3,3.1,49,0.00,,,0.00,WUHU216HW,2013-09-14 05:46:00,
2013-09-13 22:51:00,53.6,34.9,30.10,WSW,248,2.5,2.7,49,0.00,,,0.00,WUHU216HW,2013-09-14 05:51:00,
2013-09-13 22:56:00,53.5,34.7,30.10,WSW,248,3.1,3.1,49,0.00,,,0.00,WUHU216HW,2013-09-14 05:56:00,
2013-09-13 23:01:00,53.3,35.1,30.09,WSW,248,2.2,3.1,50,0.00,,,0.00,WUHU216HW,2013-09-14 06:01:00,
2013-09-13 23:06:00,53.3,35.1,30.10,WSW,248,0.7,3.1,50,0.00,,,0.00,WUHU216HW,2013-09-14 06:06:00,
2013-09-13 23:11:00,53.1,35.0,30.09,WSW,248,1.1,2.2,50,0.00,,,0.00,WUHU216HW,2013-09-14 06:11:00,
2013-09-13 23:16:00,52.9,34.8,30.09,WSW,248,2.5,2.5,50,0.00,,,0.00,WUHU216HW,2013-09-14 06:16:00,
2013-09-13 23:21:00,52.7,35.1,30.09,WSW,248,2.2,2.7,51,0.00,,,0.00,WUHU216HW,2013-09-14 06:21:00,
2013-09-13 23:26:00,52.6,34.9,30.09,WSW,248,2.5,2.7,51,0.00,,,0.00,WUHU216HW,2013-09-14 06:26:00,
2013-09-13 23:31:00,52.6,34.9,30.09,WSW,248,2.5,2.7,51,0.00,,,0.00,WUHU216HW,2013-09-14 06:31:00,
2013-09-13 23:36:00,52.4,34.7,30.09,WSW,248,2.5,2.7,51,0.00,,,0.00,WUHU216HW,2013-09-14 06:36:00,
2013-09-13 23:41:00,52.4,34.7,30.09,WSW,248,2.0,2.7,51,0.00,,,0.00,WUHU216HW,2013-09-14 06:41:00,
2013-09-13 23:46:00,52.4,35.3,30.09,WSW,248,0.0,2.5,52,0.00,,,0.00,WUHU216HW,2013-09-14 06:46:00,
2013-09-13 23:51:00,52.4,35.3,30.09,WSW,248,1.3,2.0,52,0.00,,,0.00,WUHU216HW,2013-09-14 06:51:00,
2013-09-13 23:56:00,52.2,35.1,30.09,WSW,248,1.1,2.2,52,0.00,,,0.00,WUHU216HW,2013-09-14 06:56:00,